Year,Month,Day,Hour,Minute,Value (Times are PST for temperature in C)
2014,08,17,00,00,14.30
2014,08,17,00,01,14.30
2014,08,17,00,02,14.30
2014,08,17,00,03,14.30
2014,08,17,00,04,14.30
2014,08,17,00,05,14.30
2014,08,17,00,06,14.30
2014,08,17,00,07,14.30
2014,08,17,00,08,14.30
2014,08,17,00,09,14.30
2014,08,17,00,10,14.30
2014,08,17,00,11,14.30
2014,08,17,00,12,14.20
2014,08,17,00,13,14.20
2014,08,17,00,14,14.20
2014,08,17,00,15,14.20
2014,08,17,00,16,14.20
2014,08,17,00,17,14.20
2014,08,17,00,18,14.20
2014,08,17,00,19,14.20
2014,08,17,00,20,14.20
2014,08,17,00,21,14.20
2014,08,17,00,22,14.20
2014,08,17,00,23,14.20
2014,08,17,00,24,14.20
2014,08,17,00,25,14.20
2014,08,17,00,26,14.20
2014,08,17,00,27,14.20
2014,08,17,00,28,14.10
2014,08,17,00,29,14.10
2014,08,17,00,30,14.10
2014,08,17,00,31,14.10
2014,08,17,00,32,14.10
2014,08,17,00,33,14.10
2014,08,17,00,34,14.10
2014,08,17,00,35,14.10
2014,08,17,00,36,14.10
2014,08,17,00,37,14.00
2014,08,17,00,38,14.10
2014,08,17,00,39,14.10
2014,08,17,00,40,14.10
2014,08,17,00,41,14.10
2014,08,17,00,42,14.10
2014,08,17,00,43,14.10
2014,08,17,00,44,14.00
2014,08,17,00,45,14.00
2014,08,17,00,46,14.00
2014,08,17,00,47,14.00
2014,08,17,00,48,14.00
2014,08,17,00,49,14.10
2014,08,17,00,50,14.10
2014,08,17,00,51,14.10
2014,08,17,00,52,14.10
2014,08,17,00,53,14.10
2014,08,17,00,54,14.10
2014,08,17,00,55,14.10
2014,08,17,00,56,14.10
2014,08,17,00,57,14.10
2014,08,17,00,58,14.10
2014,08,17,00,59,14.10
2014,08,17,01,00,14.10
2014,08,17,01,01,14.20
2014,08,17,01,02,14.20
2014,08,17,01,03,14.20
2014,08,17,01,04,14.20
2014,08,17,01,05,14.20
2014,08,17,01,06,14.10
2014,08,17,01,07,14.10
2014,08,17,01,08,14.10
2014,08,17,01,09,14.10
2014,08,17,01,10,14.10
2014,08,17,01,11,14.10
2014,08,17,01,12,14.10
2014,08,17,01,13,14.10
2014,08,17,01,14,14.10
2014,08,17,01,15,14.10
2014,08,17,01,16,14.10
2014,08,17,01,17,14.10
2014,08,17,01,18,14.10
2014,08,17,01,19,14.10
2014,08,17,01,20,14.10
2014,08,17,01,21,14.10
2014,08,17,01,22,14.10
2014,08,17,01,23,14.10
2014,08,17,01,24,14.10
2014,08,17,01,25,14.10
2014,08,17,01,26,14.10
2014,08,17,01,27,14.10
2014,08,17,01,28,14.10
2014,08,17,01,29,14.10
2014,08,17,01,30,14.00
2014,08,17,01,31,14.10
2014,08,17,01,32,14.10
2014,08,17,01,33,14.10
2014,08,17,01,34,14.10
2014,08,17,01,35,14.00
2014,08,17,01,36,14.00
2014,08,17,01,37,14.00
2014,08,17,01,38,14.00
2014,08,17,01,39,14.00
2014,08,17,01,40,13.90
2014,08,17,01,41,13.90
2014,08,17,01,42,13.90
2014,08,17,01,43,13.90
2014,08,17,01,44,13.90
2014,08,17,01,45,13.90
2014,08,17,01,46,13.90
2014,08,17,01,47,13.90
2014,08,17,01,48,13.90
2014,08,17,01,49,13.90
2014,08,17,01,50,13.90
2014,08,17,01,51,13.90
2014,08,17,01,52,13.90
2014,08,17,01,53,13.90
2014,08,17,01,54,13.90
2014,08,17,01,55,13.90
2014,08,17,01,56,13.90
2014,08,17,01,57,13.90
2014,08,17,01,58,13.90
2014,08,17,01,59,13.90
2014,08,17,02,00,13.90
2014,08,17,02,01,13.90
2014,08,17,02,02,13.80
2014,08,17,02,03,13.80
2014,08,17,02,04,13.80
2014,08,17,02,05,13.80
2014,08,17,02,06,13.80
2014,08,17,02,07,13.80
2014,08,17,02,08,13.80
2014,08,17,02,09,13.80
2014,08,17,02,10,13.80
2014,08,17,02,11,13.80
2014,08,17,02,12,13.80
2014,08,17,02,13,13.80
2014,08,17,02,14,13.80
2014,08,17,02,15,13.80
2014,08,17,02,16,13.80
2014,08,17,02,17,13.80
2014,08,17,02,18,13.80
2014,08,17,02,19,13.80
2014,08,17,02,20,13.80
2014,08,17,02,21,13.70
2014,08,17,02,22,13.70
2014,08,17,02,23,13.70
2014,08,17,02,24,13.70
2014,08,17,02,25,13.70
2014,08,17,02,26,13.70
2014,08,17,02,27,13.70
2014,08,17,02,28,13.70
2014,08,17,02,29,13.70
2014,08,17,02,30,13.70
2014,08,17,02,31,13.70
2014,08,17,02,32,13.70
2014,08,17,02,33,13.70
2014,08,17,02,34,13.70
2014,08,17,02,35,13.70
2014,08,17,02,36,13.70
2014,08,17,02,37,13.70
2014,08,17,02,38,13.60
2014,08,17,02,39,13.60
2014,08,17,02,40,13.60
2014,08,17,02,41,13.60
2014,08,17,02,42,13.60
2014,08,17,02,43,13.60
2014,08,17,02,44,13.60
2014,08,17,02,45,13.60
2014,08,17,02,46,13.60
2014,08,17,02,47,13.60
2014,08,17,02,48,13.60
2014,08,17,02,49,13.60
2014,08,17,02,50,13.60
2014,08,17,02,51,13.60
2014,08,17,02,52,13.60
2014,08,17,02,53,13.60
2014,08,17,02,54,13.60
2014,08,17,02,55,13.60
2014,08,17,02,56,13.60
2014,08,17,02,57,13.60
2014,08,17,02,58,13.60
2014,08,17,02,59,13.60
2014,08,17,03,00,13.60
2014,08,17,03,01,13.60
2014,08,17,03,02,13.60
2014,08,17,03,03,13.60
2014,08,17,03,04,13.60
2014,08,17,03,05,13.50
2014,08,17,03,06,13.50
2014,08,17,03,07,13.50
2014,08,17,03,08,13.50
2014,08,17,03,09,13.50
2014,08,17,03,10,13.40
2014,08,17,03,11,13.40
2014,08,17,03,12,13.40
2014,08,17,03,13,13.40
2014,08,17,03,14,13.40
2014,08,17,03,15,13.40
2014,08,17,03,16,13.40
2014,08,17,03,17,13.40
2014,08,17,03,18,13.40
2014,08,17,03,19,13.40
2014,08,17,03,20,13.40
2014,08,17,03,21,13.40
2014,08,17,03,22,13.40
2014,08,17,03,23,13.40
2014,08,17,03,24,13.40
2014,08,17,03,25,13.40
2014,08,17,03,26,13.40
2014,08,17,03,27,13.30
2014,08,17,03,28,13.30
2014,08,17,03,29,13.30
2014,08,17,03,30,13.30
2014,08,17,03,31,13.30
2014,08,17,03,32,13.30
2014,08,17,03,33,13.30
2014,08,17,03,34,13.30
2014,08,17,03,35,13.30
2014,08,17,03,36,13.30
2014,08,17,03,37,13.30
2014,08,17,03,38,13.20
2014,08,17,03,39,13.20
2014,08,17,03,40,13.20
2014,08,17,03,41,13.20
2014,08,17,03,42,13.20
2014,08,17,03,43,13.20
2014,08,17,03,44,13.20
2014,08,17,03,45,13.20
2014,08,17,03,46,13.20
2014,08,17,03,47,13.20
2014,08,17,03,48,13.20
2014,08,17,03,49,13.10
2014,08,17,03,50,13.10
2014,08,17,03,51,13.10
2014,08,17,03,52,13.10
2014,08,17,03,53,13.10
2014,08,17,03,54,13.10
2014,08,17,03,55,13.10
2014,08,17,03,56,13.00
2014,08,17,03,57,13.00
2014,08,17,03,58,13.00
2014,08,17,03,59,13.00
2014,08,17,04,00,12.90
2014,08,17,04,01,12.90
2014,08,17,04,02,12.90
2014,08,17,04,03,12.90
2014,08,17,04,04,12.90
2014,08,17,04,05,12.90
2014,08,17,04,06,12.80
2014,08,17,04,07,12.80
2014,08,17,04,08,12.80
2014,08,17,04,09,12.80
2014,08,17,04,10,12.80
2014,08,17,04,11,12.80
2014,08,17,04,12,12.80
2014,08,17,04,13,12.80
2014,08,17,04,14,12.80
2014,08,17,04,15,12.80
2014,08,17,04,16,12.80
2014,08,17,04,17,12.80
2014,08,17,04,18,12.70
2014,08,17,04,19,12.70
2014,08,17,04,20,12.70
2014,08,17,04,21,12.70
2014,08,17,04,22,12.70
2014,08,17,04,23,12.70
2014,08,17,04,24,12.70
2014,08,17,04,25,12.70
2014,08,17,04,26,12.70
2014,08,17,04,27,12.70
2014,08,17,04,28,12.70
2014,08,17,04,29,12.70
2014,08,17,04,30,12.70
2014,08,17,04,31,12.70
2014,08,17,04,32,12.70
2014,08,17,04,33,12.70
2014,08,17,04,34,12.70
2014,08,17,04,35,12.70
2014,08,17,04,36,12.70
2014,08,17,04,37,12.60
2014,08,17,04,38,12.70
2014,08,17,04,39,12.70
2014,08,17,04,40,12.70
2014,08,17,04,41,12.70
2014,08,17,04,42,12.70
2014,08,17,04,43,12.70
2014,08,17,04,44,12.70
2014,08,17,04,45,12.60
2014,08,17,04,46,12.60
2014,08,17,04,47,12.60
2014,08,17,04,48,12.60
2014,08,17,04,49,12.60
2014,08,17,04,50,12.60
2014,08,17,04,51,12.60
2014,08,17,04,52,12.60
2014,08,17,04,53,12.60
2014,08,17,04,54,12.60
2014,08,17,04,55,12.60
2014,08,17,04,56,12.60
2014,08,17,04,57,12.60
2014,08,17,04,58,12.60
2014,08,17,04,59,12.60
2014,08,17,05,00,12.60
2014,08,17,05,01,12.60
2014,08,17,05,02,12.60
2014,08,17,05,03,12.60
2014,08,17,05,04,12.60
2014,08,17,05,05,12.60
2014,08,17,05,06,12.60
2014,08,17,05,07,12.60
2014,08,17,05,08,12.50
2014,08,17,05,09,12.50
2014,08,17,05,10,12.50
2014,08,17,05,11,12.50
2014,08,17,05,12,12.50
2014,08,17,05,13,12.50
2014,08,17,05,14,12.50
2014,08,17,05,15,12.50
2014,08,17,05,16,12.50
2014,08,17,05,17,12.50
2014,08,17,05,18,12.50
2014,08,17,05,19,12.50
2014,08,17,05,20,12.50
2014,08,17,05,21,12.50
2014,08,17,05,22,12.50
2014,08,17,05,23,12.50
2014,08,17,05,24,12.50
2014,08,17,05,25,12.60
2014,08,17,05,26,12.60
2014,08,17,05,27,12.60
2014,08,17,05,28,12.60
2014,08,17,05,29,12.60
2014,08,17,05,30,12.70
2014,08,17,05,31,12.70
2014,08,17,05,32,12.70
2014,08,17,05,33,12.70
2014,08,17,05,34,12.70
2014,08,17,05,35,12.70
2014,08,17,05,36,12.70
2014,08,17,05,37,12.70
2014,08,17,05,38,12.70
2014,08,17,05,39,12.70
2014,08,17,05,40,12.70
2014,08,17,05,41,12.70
2014,08,17,05,42,12.70
2014,08,17,05,43,12.70
2014,08,17,05,44,12.70
2014,08,17,05,45,12.70
2014,08,17,05,46,12.70
2014,08,17,05,47,12.60
2014,08,17,05,48,12.60
2014,08,17,05,49,12.60
2014,08,17,05,50,12.60
2014,08,17,05,51,12.60
2014,08,17,05,52,12.60
2014,08,17,05,53,12.60
2014,08,17,05,54,12.50
2014,08,17,05,55,12.50
2014,08,17,05,56,12.50
2014,08,17,05,57,12.50
2014,08,17,05,58,12.50
2014,08,17,05,59,12.50
2014,08,17,06,00,12.50
2014,08,17,06,01,12.50
2014,08,17,06,02,12.50
2014,08,17,06,03,12.50
2014,08,17,06,04,12.50
2014,08,17,06,05,12.40
2014,08,17,06,06,12.40
2014,08,17,06,07,12.40
2014,08,17,06,08,12.40
2014,08,17,06,09,12.40
2014,08,17,06,10,12.40
2014,08,17,06,11,12.40
2014,08,17,06,12,12.40
2014,08,17,06,13,12.40
2014,08,17,06,14,12.40
2014,08,17,06,15,12.40
2014,08,17,06,16,12.30
2014,08,17,06,17,12.30
2014,08,17,06,18,12.30
2014,08,17,06,19,12.30
2014,08,17,06,20,12.30
2014,08,17,06,21,12.30
2014,08,17,06,22,12.30
2014,08,17,06,23,12.30
2014,08,17,06,24,12.30
2014,08,17,06,25,12.30
2014,08,17,06,26,12.30
2014,08,17,06,27,12.30
2014,08,17,06,28,12.30
2014,08,17,06,29,12.30
2014,08,17,06,30,12.30
2014,08,17,06,31,12.30
2014,08,17,06,32,12.30
2014,08,17,06,33,12.30
2014,08,17,06,34,12.30
2014,08,17,06,35,12.30
2014,08,17,06,36,12.30
2014,08,17,06,37,12.40
2014,08,17,06,38,12.40
2014,08,17,06,39,12.40
2014,08,17,06,40,12.40
2014,08,17,06,41,12.40
2014,08,17,06,42,12.40
2014,08,17,06,43,12.40
2014,08,17,06,44,12.40
2014,08,17,06,45,12.40
2014,08,17,06,46,12.50
2014,08,17,06,47,12.50
2014,08,17,06,48,12.60
2014,08,17,06,49,12.60
2014,08,17,06,50,12.60
2014,08,17,06,51,12.60
2014,08,17,06,52,12.60
2014,08,17,06,53,12.60
2014,08,17,06,54,12.70
2014,08,17,06,55,12.70
2014,08,17,06,56,12.70
2014,08,17,06,57,12.70
2014,08,17,06,58,12.70
2014,08,17,06,59,12.70
2014,08,17,07,00,12.70
2014,08,17,07,01,12.70
2014,08,17,07,02,12.70
2014,08,17,07,03,12.70
2014,08,17,07,04,12.80
2014,08,17,07,05,12.80
2014,08,17,07,06,12.80
2014,08,17,07,07,12.80
2014,08,17,07,08,12.80
2014,08,17,07,09,12.90
2014,08,17,07,10,12.90
2014,08,17,07,11,12.90
2014,08,17,07,12,13.00
2014,08,17,07,13,13.00
2014,08,17,07,14,13.10
2014,08,17,07,15,13.10
2014,08,17,07,16,13.10
2014,08,17,07,17,13.10
2014,08,17,07,18,13.20
2014,08,17,07,19,13.20
2014,08,17,07,20,13.20
2014,08,17,07,21,13.30
2014,08,17,07,22,13.40
2014,08,17,07,23,13.40
2014,08,17,07,24,13.50
2014,08,17,07,25,13.60
2014,08,17,07,26,13.70
2014,08,17,07,27,13.70
2014,08,17,07,28,13.80
2014,08,17,07,29,13.90
2014,08,17,07,30,13.90
2014,08,17,07,31,14.00
2014,08,17,07,32,14.10
2014,08,17,07,33,14.20
2014,08,17,07,34,14.30
2014,08,17,07,35,14.40
2014,08,17,07,36,14.50
2014,08,17,07,37,14.60
2014,08,17,07,38,14.60
2014,08,17,07,39,14.70
2014,08,17,07,40,14.70
2014,08,17,07,41,14.80
2014,08,17,07,42,14.90
2014,08,17,07,43,14.90
2014,08,17,07,44,15.00
2014,08,17,07,45,15.00
2014,08,17,07,46,15.10
2014,08,17,07,47,15.20
2014,08,17,07,48,15.30
2014,08,17,07,49,15.30
2014,08,17,07,50,15.40
2014,08,17,07,51,15.50
2014,08,17,07,52,15.60
2014,08,17,07,53,15.60
2014,08,17,07,54,15.70
2014,08,17,07,55,15.70
2014,08,17,07,56,15.80
2014,08,17,07,57,15.80
2014,08,17,07,58,15.90
2014,08,17,07,59,15.90
2014,08,17,08,00,15.90
2014,08,17,08,01,15.90
2014,08,17,08,02,16.00
2014,08,17,08,03,16.00
2014,08,17,08,04,16.10
2014,08,17,08,05,16.10
2014,08,17,08,06,16.20
2014,08,17,08,07,16.20
2014,08,17,08,08,16.20
2014,08,17,08,09,16.20
2014,08,17,08,10,16.30
2014,08,17,08,11,16.30
2014,08,17,08,12,16.30
2014,08,17,08,13,16.30
2014,08,17,08,14,16.30
2014,08,17,08,15,16.40
2014,08,17,08,16,16.30
2014,08,17,08,17,16.30
2014,08,17,08,18,16.30
2014,08,17,08,19,16.30
2014,08,17,08,20,16.30
2014,08,17,08,21,16.30
2014,08,17,08,22,16.40
2014,08,17,08,23,16.40
2014,08,17,08,24,16.50
2014,08,17,08,25,16.60
2014,08,17,08,26,16.70
2014,08,17,08,27,16.70
2014,08,17,08,28,16.80
2014,08,17,08,29,16.80
2014,08,17,08,30,16.90
2014,08,17,08,31,16.90
2014,08,17,08,32,17.00
2014,08,17,08,33,17.10
2014,08,17,08,34,17.10
2014,08,17,08,35,17.20
2014,08,17,08,36,17.30
2014,08,17,08,37,17.50
2014,08,17,08,38,17.60
2014,08,17,08,39,17.70
2014,08,17,08,40,17.90
2014,08,17,08,41,18.00
2014,08,17,08,42,18.10
2014,08,17,08,43,18.10
2014,08,17,08,44,18.10
2014,08,17,08,45,18.10
2014,08,17,08,46,18.10
2014,08,17,08,47,18.00
2014,08,17,08,48,18.00
2014,08,17,08,49,17.90
2014,08,17,08,50,17.90
2014,08,17,08,51,17.90
2014,08,17,08,52,17.80
2014,08,17,08,53,17.80
2014,08,17,08,54,17.80
2014,08,17,08,55,17.80
2014,08,17,08,56,17.90
2014,08,17,08,57,18.00
2014,08,17,08,58,18.10
2014,08,17,08,59,18.20
2014,08,17,09,00,18.30
2014,08,17,09,01,18.40
2014,08,17,09,02,18.50
2014,08,17,09,03,18.60
2014,08,17,09,04,18.80
2014,08,17,09,05,18.80
2014,08,17,09,06,18.80
2014,08,17,09,07,18.70
2014,08,17,09,08,18.50
2014,08,17,09,09,18.40
2014,08,17,09,10,18.30
2014,08,17,09,11,18.20
2014,08,17,09,12,18.20
2014,08,17,09,13,18.10
2014,08,17,09,14,18.10
2014,08,17,09,15,18.00
2014,08,17,09,16,18.00
2014,08,17,09,17,17.90
2014,08,17,09,18,17.90
2014,08,17,09,19,17.90
2014,08,17,09,20,17.90
2014,08,17,09,21,17.80
2014,08,17,09,22,17.80
2014,08,17,09,23,17.80
2014,08,17,09,24,17.80
2014,08,17,09,25,17.80
2014,08,17,09,26,17.80
2014,08,17,09,27,17.80
2014,08,17,09,28,17.90
2014,08,17,09,29,17.90
2014,08,17,09,30,18.10
2014,08,17,09,31,18.10
2014,08,17,09,32,18.20
2014,08,17,09,33,18.30
2014,08,17,09,34,18.40
2014,08,17,09,35,18.50
2014,08,17,09,36,18.50
2014,08,17,09,37,18.60
2014,08,17,09,38,18.70
2014,08,17,09,39,18.70
2014,08,17,09,40,18.70
2014,08,17,09,41,18.80
2014,08,17,09,42,18.90
2014,08,17,09,43,19.00
2014,08,17,09,44,19.10
2014,08,17,09,45,19.10
2014,08,17,09,46,19.20
2014,08,17,09,47,19.30
2014,08,17,09,48,19.40
2014,08,17,09,49,19.40
2014,08,17,09,50,19.50
2014,08,17,09,51,19.70
2014,08,17,09,52,19.80
2014,08,17,09,53,19.90
2014,08,17,09,54,20.00
2014,08,17,09,55,20.00
2014,08,17,09,56,20.10
2014,08,17,09,57,20.10
2014,08,17,09,58,20.20
2014,08,17,09,59,20.20
2014,08,17,10,00,20.30
2014,08,17,10,01,20.30
2014,08,17,10,02,20.30
2014,08,17,10,03,20.30
2014,08,17,10,04,20.30
2014,08,17,10,05,20.30
2014,08,17,10,06,20.30
2014,08,17,10,07,20.30
2014,08,17,10,08,20.30
2014,08,17,10,09,20.40
2014,08,17,10,10,20.40
2014,08,17,10,11,20.40
2014,08,17,10,12,20.40
2014,08,17,10,13,20.40
2014,08,17,10,14,20.40
2014,08,17,10,15,20.40
2014,08,17,10,16,20.40
2014,08,17,10,17,20.40
2014,08,17,10,18,20.40
2014,08,17,10,19,20.50
2014,08,17,10,20,20.60
2014,08,17,10,21,20.60
2014,08,17,10,22,20.60
2014,08,17,10,23,20.60
2014,08,17,10,24,20.70
2014,08,17,10,25,20.70
2014,08,17,10,26,20.60
2014,08,17,10,27,20.50
2014,08,17,10,28,20.40
2014,08,17,10,29,20.30
2014,08,17,10,30,20.30
2014,08,17,10,31,20.30
2014,08,17,10,32,20.20
2014,08,17,10,33,20.30
2014,08,17,10,34,20.30
2014,08,17,10,35,20.40
2014,08,17,10,36,20.40
2014,08,17,10,37,20.60
2014,08,17,10,38,20.60
2014,08,17,10,39,20.70
2014,08,17,10,40,20.70
2014,08,17,10,41,20.70
2014,08,17,10,42,20.70
2014,08,17,10,43,20.60
2014,08,17,10,44,20.50
2014,08,17,10,45,20.50
2014,08,17,10,46,20.60
2014,08,17,10,47,20.70
2014,08,17,10,48,20.70
2014,08,17,10,49,20.80
2014,08,17,10,50,20.80
2014,08,17,10,51,20.80
2014,08,17,10,52,20.90
2014,08,17,10,53,20.90
2014,08,17,10,54,21.00
2014,08,17,10,55,21.10
2014,08,17,10,56,21.20
2014,08,17,10,57,21.30
2014,08,17,10,58,21.30
2014,08,17,10,59,21.40
2014,08,17,11,00,21.40
2014,08,17,11,01,21.40
2014,08,17,11,02,21.40
2014,08,17,11,03,21.40
2014,08,17,11,04,21.40
2014,08,17,11,05,21.50
2014,08,17,11,06,21.50
2014,08,17,11,07,21.50
2014,08,17,11,08,21.40
2014,08,17,11,09,21.30
2014,08,17,11,10,21.20
2014,08,17,11,11,21.10
2014,08,17,11,12,20.90
2014,08,17,11,13,20.80
2014,08,17,11,14,20.70
2014,08,17,11,15,20.60
2014,08,17,11,16,20.50
2014,08,17,11,17,20.50
2014,08,17,11,18,20.40
2014,08,17,11,19,20.40
2014,08,17,11,20,20.40
2014,08,17,11,21,20.40
2014,08,17,11,22,20.50
2014,08,17,11,23,20.50
2014,08,17,11,24,20.60
2014,08,17,11,25,20.60
2014,08,17,11,26,20.70
2014,08,17,11,27,20.60
2014,08,17,11,28,20.60
2014,08,17,11,29,20.50
2014,08,17,11,30,20.40
2014,08,17,11,31,20.40
2014,08,17,11,32,20.30
2014,08,17,11,33,20.30
2014,08,17,11,34,20.40
2014,08,17,11,35,20.40
2014,08,17,11,36,20.40
2014,08,17,11,37,20.40
2014,08,17,11,38,20.40
2014,08,17,11,39,20.40
2014,08,17,11,40,20.40
2014,08,17,11,41,20.30
2014,08,17,11,42,20.30
2014,08,17,11,43,20.30
2014,08,17,11,44,20.30
2014,08,17,11,45,20.30
2014,08,17,11,46,20.30
2014,08,17,11,47,20.30
2014,08,17,11,48,20.40
2014,08,17,11,49,20.50
2014,08,17,11,50,20.60
2014,08,17,11,51,20.70
2014,08,17,11,52,20.60
2014,08,17,11,53,20.70
2014,08,17,11,54,20.70
2014,08,17,11,55,20.80
2014,08,17,11,56,20.80
2014,08,17,11,57,20.90
2014,08,17,11,58,20.90
2014,08,17,11,59,20.80
2014,08,17,12,00,20.80
2014,08,17,12,01,20.70
2014,08,17,12,02,20.80
2014,08,17,12,03,20.80
2014,08,17,12,04,20.80
2014,08,17,12,05,20.90
2014,08,17,12,06,20.90
2014,08,17,12,07,20.90
2014,08,17,12,08,20.90
2014,08,17,12,09,21.00
2014,08,17,12,10,21.00
2014,08,17,12,11,21.00
2014,08,17,12,12,21.00
2014,08,17,12,13,21.00
2014,08,17,12,14,21.10
2014,08,17,12,15,21.20
2014,08,17,12,16,21.30
2014,08,17,12,17,21.40
2014,08,17,12,18,21.30
2014,08,17,12,19,21.30
2014,08,17,12,20,21.20
2014,08,17,12,21,21.20
2014,08,17,12,22,21.20
2014,08,17,12,23,21.20
2014,08,17,12,24,21.20
2014,08,17,12,25,21.30
2014,08,17,12,26,21.30
2014,08,17,12,27,21.30
2014,08,17,12,28,21.30
2014,08,17,12,29,21.40
2014,08,17,12,30,21.50
2014,08,17,12,31,21.50
2014,08,17,12,32,21.60
2014,08,17,12,33,21.70
2014,08,17,12,34,21.70
2014,08,17,12,35,21.80
2014,08,17,12,36,21.80
2014,08,17,12,37,21.70
2014,08,17,12,38,21.70
2014,08,17,12,39,21.60
2014,08,17,12,40,21.60
2014,08,17,12,41,21.60
2014,08,17,12,42,21.60
2014,08,17,12,43,21.60
2014,08,17,12,44,21.60
2014,08,17,12,45,21.60
2014,08,17,12,46,21.60
2014,08,17,12,47,21.70
2014,08,17,12,48,21.70
2014,08,17,12,49,21.80
2014,08,17,12,50,21.80
2014,08,17,12,51,21.80
2014,08,17,12,52,21.80
2014,08,17,12,53,21.80
2014,08,17,12,54,21.90
2014,08,17,12,55,21.90
2014,08,17,12,56,21.80
2014,08,17,12,57,21.80
2014,08,17,12,58,21.70
2014,08,17,12,59,21.60
2014,08,17,13,00,21.60
2014,08,17,13,01,21.60
2014,08,17,13,02,21.70
2014,08,17,13,03,21.70
2014,08,17,13,04,21.70
2014,08,17,13,05,21.80
2014,08,17,13,06,21.80
2014,08,17,13,07,21.80
2014,08,17,13,08,21.80
2014,08,17,13,09,21.80
2014,08,17,13,10,21.80
2014,08,17,13,11,21.70
2014,08,17,13,12,21.70
2014,08,17,13,13,21.80
2014,08,17,13,14,21.90
2014,08,17,13,15,21.90
2014,08,17,13,16,21.90
2014,08,17,13,17,21.90
2014,08,17,13,18,21.90
2014,08,17,13,19,21.90
2014,08,17,13,20,22.00
2014,08,17,13,21,22.10
2014,08,17,13,22,22.10
2014,08,17,13,23,22.10
2014,08,17,13,24,22.10
2014,08,17,13,25,22.10
2014,08,17,13,26,22.10
2014,08,17,13,27,22.10
2014,08,17,13,28,22.20
2014,08,17,13,29,22.20
2014,08,17,13,30,22.20
2014,08,17,13,31,22.20
2014,08,17,13,32,22.20
2014,08,17,13,33,22.20
2014,08,17,13,34,22.20
2014,08,17,13,35,22.10
2014,08,17,13,36,22.10
2014,08,17,13,37,22.10
2014,08,17,13,38,22.00
2014,08,17,13,39,21.90
2014,08,17,13,40,22.00
2014,08,17,13,41,22.00
2014,08,17,13,42,22.10
2014,08,17,13,43,22.20
2014,08,17,13,44,22.30
2014,08,17,13,45,22.30
2014,08,17,13,46,22.20
2014,08,17,13,47,22.20
2014,08,17,13,48,22.20
2014,08,17,13,49,22.20
2014,08,17,13,50,22.30
2014,08,17,13,51,22.30
2014,08,17,13,52,22.40
2014,08,17,13,53,22.40
2014,08,17,13,54,22.40
2014,08,17,13,55,22.50
2014,08,17,13,56,22.50
2014,08,17,13,57,22.50
2014,08,17,13,58,22.50
2014,08,17,13,59,22.50
2014,08,17,14,00,22.40
2014,08,17,14,01,22.30
2014,08,17,14,02,22.30
2014,08,17,14,03,22.30
2014,08,17,14,04,22.30
2014,08,17,14,05,22.30
2014,08,17,14,06,22.30
2014,08,17,14,07,22.30
2014,08,17,14,08,22.40
2014,08,17,14,09,22.60
2014,08,17,14,10,22.60
2014,08,17,14,11,22.70
2014,08,17,14,12,22.80
2014,08,17,14,13,22.90
2014,08,17,14,14,22.90
2014,08,17,14,15,22.90
2014,08,17,14,16,22.90
2014,08,17,14,17,22.90
2014,08,17,14,18,22.90
2014,08,17,14,19,22.90
2014,08,17,14,20,22.90
2014,08,17,14,21,22.90
2014,08,17,14,22,22.90
2014,08,17,14,23,22.90
2014,08,17,14,24,22.90
2014,08,17,14,25,22.90
2014,08,17,14,26,22.90
2014,08,17,14,27,22.80
2014,08,17,14,28,22.80
2014,08,17,14,29,22.80
2014,08,17,14,30,22.80
2014,08,17,14,31,22.80
2014,08,17,14,32,22.90
2014,08,17,14,33,22.90
2014,08,17,14,34,23.00
2014,08,17,14,35,23.00
2014,08,17,14,36,23.10
2014,08,17,14,37,23.20
2014,08,17,14,38,23.20
2014,08,17,14,39,23.30
2014,08,17,14,40,23.30
2014,08,17,14,41,23.30
2014,08,17,14,42,23.20
2014,08,17,14,43,23.20
2014,08,17,14,44,23.30
2014,08,17,14,45,23.30
2014,08,17,14,46,23.30
2014,08,17,14,47,23.20
2014,08,17,14,48,23.20
2014,08,17,14,49,23.20
2014,08,17,14,50,23.20
2014,08,17,14,51,23.30
2014,08,17,14,52,23.30
2014,08,17,14,53,23.30
2014,08,17,14,54,23.30
2014,08,17,14,55,23.30
2014,08,17,14,56,23.20
2014,08,17,14,57,23.00
2014,08,17,14,58,23.00
2014,08,17,14,59,22.90
2014,08,17,15,00,22.90
2014,08,17,15,01,22.90
2014,08,17,15,02,22.90
2014,08,17,15,03,22.90
2014,08,17,15,04,23.00
2014,08,17,15,05,23.00
2014,08,17,15,06,23.00
2014,08,17,15,07,23.10
2014,08,17,15,08,23.20
2014,08,17,15,09,23.20
2014,08,17,15,10,23.30
2014,08,17,15,11,23.40
2014,08,17,15,12,23.40
2014,08,17,15,13,23.40
2014,08,17,15,14,23.30
2014,08,17,15,15,23.20
2014,08,17,15,16,23.20
2014,08,17,15,17,23.20
2014,08,17,15,18,23.10
2014,08,17,15,19,23.00
2014,08,17,15,20,23.00
2014,08,17,15,21,23.00
2014,08,17,15,22,23.10
2014,08,17,15,23,23.10
2014,08,17,15,24,23.10
2014,08,17,15,25,23.10
2014,08,17,15,26,23.00
2014,08,17,15,27,23.00
2014,08,17,15,28,22.90
2014,08,17,15,29,22.90
2014,08,17,15,30,22.90
2014,08,17,15,31,22.80
2014,08,17,15,32,22.90
2014,08,17,15,33,22.90
2014,08,17,15,34,22.90
2014,08,17,15,35,22.80
2014,08,17,15,36,22.80
2014,08,17,15,37,22.70
2014,08,17,15,38,22.60
2014,08,17,15,39,22.60
2014,08,17,15,40,22.50
2014,08,17,15,41,22.50
2014,08,17,15,42,22.50
2014,08,17,15,43,22.50
2014,08,17,15,44,22.60
2014,08,17,15,45,22.60
2014,08,17,15,46,22.70
2014,08,17,15,47,22.80
2014,08,17,15,48,22.90
2014,08,17,15,49,23.00
2014,08,17,15,50,23.10
2014,08,17,15,51,23.00
2014,08,17,15,52,23.10
2014,08,17,15,53,23.10
2014,08,17,15,54,23.10
2014,08,17,15,55,23.10
2014,08,17,15,56,23.10
2014,08,17,15,57,23.20
2014,08,17,15,58,23.20
2014,08,17,15,59,23.10
2014,08,17,16,00,23.10
2014,08,17,16,01,23.10
2014,08,17,16,02,23.10
2014,08,17,16,03,23.10
2014,08,17,16,04,23.10
2014,08,17,16,05,23.20
2014,08,17,16,06,23.20
2014,08,17,16,07,23.20
2014,08,17,16,08,23.20
2014,08,17,16,09,23.20
2014,08,17,16,10,23.20
2014,08,17,16,11,23.30
2014,08,17,16,12,23.30
2014,08,17,16,13,23.30
2014,08,17,16,14,23.30
2014,08,17,16,15,23.30
2014,08,17,16,16,23.20
2014,08,17,16,17,23.10
2014,08,17,16,18,23.10
2014,08,17,16,19,23.00
2014,08,17,16,20,23.00
2014,08,17,16,21,23.00
2014,08,17,16,22,23.00
2014,08,17,16,23,23.10
2014,08,17,16,24,23.10
2014,08,17,16,25,23.10
2014,08,17,16,26,23.20
2014,08,17,16,27,23.10
2014,08,17,16,28,23.10
2014,08,17,16,29,23.00
2014,08,17,16,30,23.00
2014,08,17,16,31,22.90
2014,08,17,16,32,22.80
2014,08,17,16,33,22.80
2014,08,17,16,34,22.80
2014,08,17,16,35,22.80
2014,08,17,16,36,22.80
2014,08,17,16,37,22.80
2014,08,17,16,38,22.70
2014,08,17,16,39,22.70
2014,08,17,16,40,22.70
2014,08,17,16,41,22.70
2014,08,17,16,42,22.70
2014,08,17,16,43,22.70
2014,08,17,16,44,22.70
2014,08,17,16,45,22.70
2014,08,17,16,46,22.70
2014,08,17,16,47,22.80
2014,08,17,16,48,22.80
2014,08,17,16,49,22.80
2014,08,17,16,50,22.70
2014,08,17,16,51,22.70
2014,08,17,16,52,22.70
2014,08,17,16,53,22.70
2014,08,17,16,54,22.60
2014,08,17,16,55,22.60
2014,08,17,16,56,22.60
2014,08,17,16,57,22.60
2014,08,17,16,58,22.60
2014,08,17,16,59,22.60
2014,08,17,17,00,22.50
2014,08,17,17,01,22.50
2014,08,17,17,02,22.40
2014,08,17,17,03,22.40
2014,08,17,17,04,22.40
2014,08,17,17,05,22.40
2014,08,17,17,06,22.50
2014,08,17,17,07,22.40
2014,08,17,17,08,22.40
2014,08,17,17,09,22.40
2014,08,17,17,10,22.50
2014,08,17,17,11,22.50
2014,08,17,17,12,22.60
2014,08,17,17,13,22.70
2014,08,17,17,14,22.70
2014,08,17,17,15,22.80
2014,08,17,17,16,22.80
2014,08,17,17,17,22.90
2014,08,17,17,18,23.00
2014,08,17,17,19,23.10